Time,TemperatureF,DewpointF,PressureIn,WindDirection,WindDirectionDegrees,WindSpeedMPH,WindSpeedGustMPH,Humidity,HourlyPrecipIn,Conditions,Clouds,dailyrainin,SoftwareType,DateUTC
2014-10-22 00:04:00,48.4,41.2,30.15,WNW,289,0.0,0.0,76,0.00,,,0.00,Wunderground v.1.13,2014-10-22 04:04:00,
2014-10-22 00:09:00,48.2,41.3,30.15,WNW,289,0.0,0.0,77,0.00,,,0.00,Wunderground v.1.13,2014-10-22 04:09:00,
2014-10-22 00:15:00,48.0,41.1,30.14,WNW,289,0.0,0.0,77,0.00,,,0.00,Wunderground v.1.13,2014-10-22 04:15:00,
2014-10-22 00:21:00,47.9,41.0,30.14,WNW,289,0.0,0.0,77,0.00,,,0.00,Wunderground v.1.13,2014-10-22 04:21:00,
2014-10-22 00:27:00,47.8,41.3,30.14,WNW,289,0.0,0.0,78,0.00,,,0.00,Wunderground v.1.13,2014-10-22 04:27:00,
2014-10-22 00:32:00,47.7,41.2,30.14,WNW,289,0.0,0.0,78,0.00,,,0.00,Wunderground v.1.13,2014-10-22 04:32:00,
2014-10-22 00:38:00,47.6,41.1,30.14,WNW,289,0.0,0.0,78,0.00,,,0.00,Wunderground v.1.13,2014-10-22 04:38:00,
2014-10-22 00:43:00,47.4,40.9,30.14,WNW,289,0.0,0.0,78,0.00,,,0.00,Wunderground v.1.13,2014-10-22 04:43:00,
2014-10-22 00:49:00,47.3,41.1,30.14,WNW,289,0.0,0.0,79,0.00,,,0.00,Wunderground v.1.13,2014-10-22 04:49:00,
2014-10-22 00:54:00,47.1,40.9,30.14,WNW,289,0.0,0.0,79,0.00,,,0.00,Wunderground v.1.13,2014-10-22 04:54:00,
2014-10-22 01:00:00,46.9,40.7,30.14,WNW,289,0.0,0.0,79,0.00,,,0.00,Wunderground v.1.13,2014-10-22 05:00:00,
2014-10-22 01:06:00,46.6,40.4,30.14,WNW,289,0.0,0.0,79,0.00,,,0.00,Wunderground v.1.13,2014-10-22 05:06:00,
2014-10-22 01:12:00,46.2,40.0,30.14,WNW,289,0.0,0.0,79,0.00,,,0.00,Wunderground v.1.13,2014-10-22 05:12:00,
2014-10-22 01:17:00,46.0,39.9,30.14,WNW,289,0.0,0.0,79,0.00,,,0.00,Wunderground v.1.13,2014-10-22 05:17:00,
2014-10-22 01:23:00,45.6,39.8,30.14,WNW,289,0.0,0.0,80,0.00,,,0.00,Wunderground v.1.13,2014-10-22 05:23:00,
2014-10-22 01:28:00,45.3,39.5,30.14,WNW,289,0.0,0.0,80,0.00,,,0.00,Wunderground v.1.13,2014-10-22 05:28:00,
2014-10-22 01:34:00,44.8,39.3,30.14,WNW,289,0.0,0.0,81,0.00,,,0.00,Wunderground v.1.13,2014-10-22 05:34:00,
2014-10-22 01:40:00,44.3,38.8,30.14,WNW,289,0.0,0.0,81,0.00,,,0.00,Wunderground v.1.13,2014-10-22 05:40:00,
2014-10-22 01:46:00,44.0,38.9,30.14,WNW,289,0.0,0.0,82,0.00,,,0.00,Wunderground v.1.13,2014-10-22 05:46:00,
2014-10-22 01:51:00,43.6,38.5,30.14,WNW,289,0.0,0.0,82,0.00,,,0.00,Wunderground v.1.13,2014-10-22 05:51:00,
2014-10-22 01:57:00,43.2,38.1,30.14,WNW,289,0.0,0.0,82,0.00,,,0.00,Wunderground v.1.13,2014-10-22 05:57:00,
2014-10-22 02:02:00,42.8,38.0,30.14,WNW,289,0.0,0.0,83,0.00,,,0.00,Wunderground v.1.13,2014-10-22 06:02:00,
2014-10-22 02:07:00,42.5,37.7,30.14,WNW,289,0.0,0.0,83,0.00,,,0.00,Wunderground v.1.13,2014-10-22 06:07:00,
2014-10-22 02:13:00,42.2,37.7,30.14,WNW,289,0.0,0.0,84,0.00,,,0.00,Wunderground v.1.13,2014-10-22 06:13:00,
2014-10-22 02:18:00,41.9,37.4,30.14,WNW,289,0.0,0.0,84,0.00,,,0.00,Wunderground v.1.13,2014-10-22 06:18:00,
2014-10-22 02:24:00,41.5,37.0,30.14,WNW,289,0.0,0.0,84,0.00,,,0.00,Wunderground v.1.13,2014-10-22 06:24:00,
2014-10-22 02:30:00,41.3,37.1,30.14,WNW,289,0.0,0.0,85,0.00,,,0.00,Wunderground v.1.13,2014-10-22 06:30:00,
2014-10-22 02:36:00,41.0,36.8,30.14,WNW,289,0.0,0.0,85,0.00,,,0.00,Wunderground v.1.13,2014-10-22 06:36:00,
2014-10-22 02:41:00,40.9,37.0,30.14,WNW,289,0.0,0.0,86,0.00,,,0.00,Wunderground v.1.13,2014-10-22 06:41:00,
2014-10-22 02:47:00,40.7,36.8,30.14,WNW,289,0.0,0.0,86,0.00,,,0.00,Wunderground v.1.13,2014-10-22 06:47:00,
2014-10-22 02:52:00,40.5,36.6,30.14,WNW,289,0.0,0.0,86,0.00,,,0.00,Wunderground v.1.13,2014-10-22 06:52:00,
2014-10-22 02:58:00,40.2,36.3,30.14,WNW,288,0.0,0.0,86,0.00,,,0.00,Wunderground v.1.13,2014-10-22 06:58:00,
2014-10-22 03:04:00,39.9,36.1,30.14,WNW,289,0.0,0.0,86,0.00,,,0.00,Wunderground v.1.13,2014-10-22 07:04:00,
2014-10-22 03:10:00,39.6,36.0,30.14,WNW,289,0.0,0.0,87,0.00,,,0.00,Wunderground v.1.13,2014-10-22 07:10:00,
2014-10-22 03:15:00,39.4,35.9,30.14,WNW,289,0.0,0.0,87,0.00,,,0.00,Wunderground v.1.13,2014-10-22 07:15:00,
2014-10-22 03:21:00,39.2,35.7,30.14,WNW,289,0.0,0.0,87,0.00,,,0.00,Wunderground v.1.13,2014-10-22 07:21:00,
2014-10-22 03:26:00,39.0,35.5,30.14,WNW,289,0.0,0.0,87,0.00,,,0.00,Wunderground v.1.13,2014-10-22 07:26:00,
2014-10-22 03:32:00,38.8,35.6,30.14,WNW,289,0.0,0.0,88,0.00,,,0.00,Wunderground v.1.13,2014-10-22 07:32:00,
2014-10-22 03:38:00,38.7,35.5,30.15,WNW,289,0.0,0.0,88,0.00,,,0.00,Wunderground v.1.13,2014-10-22 07:38:00,
2014-10-22 03:44:00,38.6,35.4,30.15,WNW,289,0.0,0.0,88,0.00,,,0.00,Wunderground v.1.13,2014-10-22 07:44:00,
2014-10-22 03:49:00,38.6,35.6,30.15,WNW,289,0.0,0.0,89,0.00,,,0.00,Wunderground v.1.13,2014-10-22 07:49:00,
2014-10-22 03:55:00,38.4,35.4,30.15,WNW,289,0.0,0.0,89,0.00,,,0.00,Wunderground v.1.13,2014-10-22 07:55:00,
2014-10-22 04:00:00,38.5,35.5,30.15,WNW,289,0.0,0.0,89,0.00,,,0.00,Wunderground v.1.13,2014-10-22 08:00:00,
2014-10-22 04:06:00,38.4,35.4,30.15,WNW,288,0.0,0.0,89,0.00,,,0.00,Wunderground v.1.13,2014-10-22 08:06:00,
2014-10-22 04:12:00,38.4,35.7,30.15,WNW,289,0.0,0.0,90,0.00,,,0.00,Wunderground v.1.13,2014-10-22 08:12:00,
2014-10-22 04:17:00,38.3,35.6,30.15,WNW,289,0.0,0.0,90,0.00,,,0.00,Wunderground v.1.13,2014-10-22 08:17:00,
2014-10-22 04:23:00,38.3,35.6,30.15,WNW,289,0.0,0.0,90,0.00,,,0.00,Wunderground v.1.13,2014-10-22 08:23:00,
2014-10-22 04:29:00,38.3,35.6,30.15,WNW,289,0.0,0.0,90,0.00,,,0.00,Wunderground v.1.13,2014-10-22 08:29:00,
2014-10-22 04:35:00,38.4,36.0,30.16,WNW,288,0.0,0.0,91,0.00,,,0.00,Wunderground v.1.13,2014-10-22 08:35:00,
2014-10-22 04:40:00,38.6,36.2,30.16,WNW,288,0.0,0.0,91,0.00,,,0.00,Wunderground v.1.13,2014-10-22 08:40:00,
2014-10-22 04:46:00,38.6,36.2,30.16,WNW,289,0.0,0.0,91,0.00,,,0.00,Wunderground v.1.13,2014-10-22 08:46:00,
2014-10-22 04:51:00,38.8,36.4,30.16,WNW,289,0.0,0.0,91,0.00,,,0.00,Wunderground v.1.13,2014-10-22 08:51:00,
2014-10-22 04:57:00,39.1,36.7,30.16,WNW,289,0.0,0.0,91,0.00,,,0.00,Wunderground v.1.13,2014-10-22 08:57:00,
2014-10-22 05:03:00,39.3,37.2,30.17,WNW,289,0.0,0.0,92,0.00,,,0.00,Wunderground v.1.13,2014-10-22 09:03:00,
2014-10-22 05:09:00,39.5,37.4,30.17,WNW,289,0.0,0.0,92,0.00,,,0.00,Wunderground v.1.13,2014-10-22 09:09:00,
2014-10-22 05:14:00,39.6,37.5,30.17,WNW,289,0.0,0.0,92,0.00,,,0.00,Wunderground v.1.13,2014-10-22 09:14:00,
2014-10-22 05:20:00,39.8,37.7,30.17,WNW,289,0.0,0.0,92,0.00,,,0.00,Wunderground v.1.13,2014-10-22 09:20:00,
2014-10-22 05:25:00,40.0,37.9,30.17,WNW,289,0.0,0.0,92,0.00,,,0.00,Wunderground v.1.13,2014-10-22 09:25:00,
2014-10-22 05:31:00,40.2,38.1,30.18,WNW,289,0.0,0.0,92,0.00,,,0.00,Wunderground v.1.13,2014-10-22 09:31:00,
2014-10-22 05:37:00,40.3,38.2,30.18,WNW,289,0.0,0.0,92,0.00,,,0.00,Wunderground v.1.13,2014-10-22 09:37:00,
2014-10-22 05:43:00,40.6,38.7,30.18,WNW,289,0.0,0.0,93,0.00,,,0.00,Wunderground v.1.13,2014-10-22 09:43:00,
2014-10-22 05:48:00,40.8,38.9,30.18,WNW,289,0.0,0.0,93,0.00,,,0.00,Wunderground v.1.13,2014-10-22 09:48:00,
2014-10-22 05:54:00,41.0,39.1,30.18,WNW,288,0.0,0.0,93,0.00,,,0.00,Wunderground v.1.13,2014-10-22 09:54:00,
2014-10-22 05:59:00,41.1,39.2,30.18,WNW,289,0.0,0.0,93,0.00,,,0.00,Wunderground v.1.13,2014-10-22 09:59:00,
2014-10-22 06:05:00,41.2,39.3,30.18,WNW,289,0.0,0.0,93,0.00,,,0.00,Wunderground v.1.13,2014-10-22 10:05:00,
2014-10-22 06:11:00,41.3,39.4,30.18,WNW,289,0.0,0.0,93,0.00,,,0.00,Wunderground v.1.13,2014-10-22 10:11:00,
2014-10-22 06:17:00,41.3,39.4,30.18,WNW,289,0.0,0.0,93,0.00,,,0.00,Wunderground v.1.13,2014-10-22 10:17:00,
2014-10-22 06:22:00,41.3,39.4,30.18,WNW,289,0.0,0.0,93,0.00,,,0.00,Wunderground v.1.13,2014-10-22 10:22:00,
2014-10-22 06:28:00,41.2,39.3,30.19,WNW,288,0.0,0.0,93,0.00,,,0.00,Wunderground v.1.13,2014-10-22 10:28:00,
2014-10-22 06:34:00,41.0,39.1,30.19,WNW,289,0.0,0.0,93,0.00,,,0.00,Wunderground v.1.13,2014-10-22 10:34:00,
2014-10-22 06:39:00,40.8,38.9,30.20,WNW,289,0.0,0.0,93,0.00,,,0.00,Wunderground v.1.13,2014-10-22 10:39:00,
2014-10-22 06:45:00,40.6,38.7,30.20,WNW,289,0.0,0.0,93,0.00,,,0.00,Wunderground v.1.13,2014-10-22 10:45:00,
2014-10-22 06:50:00,40.5,38.6,30.20,WNW,289,0.0,0.0,93,0.00,,,0.00,Wunderground v.1.13,2014-10-22 10:50:00,
2014-10-22 06:56:00,40.3,38.4,30.20,WNW,289,0.0,0.0,93,0.00,,,0.00,Wunderground v.1.13,2014-10-22 10:56:00,
2014-10-22 07:02:00,40.2,38.1,30.20,WNW,289,0.0,0.0,92,0.00,,,0.00,Wunderground v.1.13,2014-10-22 11:02:00,
2014-10-22 07:08:00,40.0,37.9,30.21,WNW,289,0.0,0.0,92,0.00,,,0.00,Wunderground v.1.13,2014-10-22 11:08:00,
2014-10-22 07:13:00,39.7,37.6,30.21,WNW,289,0.0,0.0,92,0.00,,,0.00,Wunderground v.1.13,2014-10-22 11:13:00,
2014-10-22 07:19:00,39.5,37.4,30.21,WNW,289,0.0,0.0,92,0.00,,,0.00,Wunderground v.1.13,2014-10-22 11:19:00,
2014-10-22 07:25:00,39.3,37.2,30.22,WNW,289,0.0,0.0,92,0.00,,,0.00,Wunderground v.1.13,2014-10-22 11:25:00,
2014-10-22 07:32:00,39.1,37.0,30.22,WNW,289,0.0,0.0,92,0.00,,,0.00,Wunderground v.1.13,2014-10-22 11:32:00,
2014-10-22 07:37:00,38.9,36.8,30.22,WNW,288,0.0,0.0,92,0.00,,,0.00,Wunderground v.1.13,2014-10-22 11:37:00,
2014-10-22 07:43:00,38.8,36.7,30.22,WNW,289,0.0,0.0,92,0.00,,,0.00,Wunderground v.1.13,2014-10-22 11:43:00,
2014-10-22 07:48:00,38.6,36.5,30.23,WNW,289,0.0,0.0,92,0.00,,,0.00,Wunderground v.1.13,2014-10-22 11:48:00,
2014-10-22 07:54:00,38.4,36.3,30.22,WNW,289,0.0,0.0,92,0.00,,,0.00,Wunderground v.1.13,2014-10-22 11:54:00,
2014-10-22 08:00:00,38.3,36.2,30.22,WNW,289,0.0,0.0,92,0.00,,,0.00,Wunderground v.1.13,2014-10-22 12:00:00,
2014-10-22 08:05:00,38.3,36.2,30.22,WNW,289,0.0,0.0,92,0.00,,,0.00,Wunderground v.1.13,2014-10-22 12:05:00,
2014-10-22 08:11:00,38.2,36.1,30.23,WNW,289,0.0,0.0,92,0.00,,,0.00,Wunderground v.1.13,2014-10-22 12:11:00,
2014-10-22 08:17:00,38.1,36.3,30.23,WNW,288,0.0,0.0,93,0.00,,,0.00,Wunderground v.1.13,2014-10-22 12:17:00,
2014-10-22 08:22:00,38.3,36.5,30.23,WNW,289,0.0,0.0,93,0.00,,,0.00,Wunderground v.1.13,2014-10-22 12:22:00,
2014-10-22 08:28:00,38.5,36.7,30.24,WNW,288,0.0,0.0,93,0.00,,,0.00,Wunderground v.1.13,2014-10-22 12:28:00,
2014-10-22 08:33:00,38.6,36.8,30.24,WNW,289,0.0,0.0,93,0.00,,,0.00,Wunderground v.1.13,2014-10-22 12:33:00,
2014-10-22 08:38:00,38.8,36.9,30.24,WNW,288,0.0,0.0,93,0.00,,,0.00,Wunderground v.1.13,2014-10-22 12:38:00,
2014-10-22 08:44:00,39.7,38.1,30.25,WNW,288,0.0,0.0,94,0.00,,,0.00,Wunderground v.1.13,2014-10-22 12:44:00,
2014-10-22 08:50:00,40.7,39.4,30.24,WNW,288,0.0,0.0,95,0.00,,,0.00,Wunderground v.1.13,2014-10-22 12:50:00,
2014-10-22 08:55:00,41.6,40.3,30.25,WNW,288,0.0,0.0,95,0.00,,,0.00,Wunderground v.1.13,2014-10-22 12:55:00,
2014-10-22 09:01:00,42.6,41.3,30.25,WNW,289,0.0,0.0,95,0.00,,,0.00,Wunderground v.1.13,2014-10-22 13:01:00,
2014-10-22 09:07:00,43.7,42.4,30.25,WNW,289,0.0,0.0,95,0.00,,,0.00,Wunderground v.1.13,2014-10-22 13:07:00,
2014-10-22 09:12:00,45.0,43.7,30.25,WNW,294,0.0,2.0,95,0.00,,,0.00,Wunderground v.1.13,2014-10-22 13:12:00,
2014-10-22 09:18:00,45.9,44.0,30.26,ENE,75,2.0,7.0,93,0.00,,,0.00,Wunderground v.1.13,2014-10-22 13:18:00,
2014-10-22 09:23:00,47.0,43.3,30.26,ENE,72,6.0,9.0,87,0.00,,,0.00,Wunderground v.1.13,2014-10-22 13:23:00,
2014-10-22 09:29:00,48.1,42.2,30.26,ENE,65,8.0,9.0,80,0.00,,,0.00,Wunderground v.1.13,2014-10-22 13:29:00,
2014-10-22 09:35:00,48.7,40.8,30.27,ENE,63,8.0,11.0,74,0.00,,,0.00,Wunderground v.1.13,2014-10-22 13:35:00,
2014-10-22 09:41:00,49.2,40.2,30.27,ENE,74,7.0,7.0,71,0.00,,,0.00,Wunderground v.1.13,2014-10-22 13:41:00,
2014-10-22 09:46:00,49.4,40.0,30.27,East,91,6.0,6.0,70,0.00,,,0.00,Wunderground v.1.13,2014-10-22 13:46:00,
2014-10-22 09:52:00,49.8,39.3,30.27,ENE,66,7.0,13.0,67,0.00,,,0.00,Wunderground v.1.13,2014-10-22 13:52:00,
2014-10-22 09:58:00,49.8,38.5,30.27,ENE,57,8.0,10.0,65,0.00,,,0.00,Wunderground v.1.13,2014-10-22 13:58:00,
2014-10-22 10:03:00,49.9,38.6,30.27,ENE,61,8.0,9.0,65,0.00,,,0.00,Wunderground v.1.13,2014-10-22 14:03:00,
2014-10-22 10:09:00,50.1,38.8,30.27,SE,134,6.0,9.0,65,0.00,,,0.00,Wunderground v.1.13,2014-10-22 14:09:00,
2014-10-22 10:15:00,50.6,39.3,30.27,ENE,67,6.0,12.0,65,0.00,,,0.00,Wunderground v.1.13,2014-10-22 14:15:00,
2014-10-22 10:20:00,50.1,38.4,30.27,ENE,68,8.0,9.0,64,0.00,,,0.00,Wunderground v.1.13,2014-10-22 14:20:00,
2014-10-22 10:26:00,50.1,38.8,30.27,ENE,76,11.0,11.0,65,0.00,,,0.00,Wunderground v.1.13,2014-10-22 14:26:00,
2014-10-22 10:32:00,50.5,39.6,30.27,East,90,8.0,8.0,66,0.00,,,0.00,Wunderground v.1.13,2014-10-22 14:32:00,
2014-10-22 10:37:00,50.9,39.1,30.27,East,80,5.0,11.0,64,0.00,,,0.00,Wunderground v.1.13,2014-10-22 14:37:00,
2014-10-22 10:42:00,50.7,38.6,30.27,ENE,69,8.0,13.0,63,0.00,,,0.00,Wunderground v.1.13,2014-10-22 14:42:00,
2014-10-22 10:48:00,50.9,39.1,30.28,East,95,8.0,9.0,64,0.00,,,0.00,Wunderground v.1.13,2014-10-22 14:48:00,
2014-10-22 10:53:00,50.9,38.7,30.27,ENE,65,7.0,10.0,63,0.00,,,0.00,Wunderground v.1.13,2014-10-22 14:53:00,
2014-10-22 10:59:00,50.9,39.5,30.27,East,92,5.0,11.0,65,0.00,,,0.00,Wunderground v.1.13,2014-10-22 14:59:00,
2014-10-22 11:05:00,50.9,39.5,30.28,ESE,120,5.0,5.0,65,0.00,,,0.00,Wunderground v.1.13,2014-10-22 15:05:00,
2014-10-22 11:10:00,51.0,39.6,30.28,SE,124,4.0,4.0,65,0.00,,,0.00,Wunderground v.1.13,2014-10-22 15:10:00,
2014-10-22 11:16:00,51.1,39.7,30.28,SE,128,4.0,5.0,65,0.00,,,0.00,Wunderground v.1.13,2014-10-22 15:16:00,
2014-10-22 11:21:00,51.0,39.6,30.28,SE,142,6.0,6.0,65,0.00,,,0.00,Wunderground v.1.13,2014-10-22 15:21:00,
2014-10-22 11:27:00,50.9,39.5,30.28,SE,132,6.0,6.0,65,0.00,,,0.00,Wunderground v.1.13,2014-10-22 15:27:00,
2014-10-22 11:32:00,51.2,40.2,30.28,SE,136,4.0,5.0,66,0.00,,,0.00,Wunderground v.1.13,2014-10-22 15:32:00,
2014-10-22 11:37:00,52.2,40.0,30.28,SE,138,3.0,4.0,63,0.00,,,0.00,Wunderground v.1.13,2014-10-22 15:37:00,
2014-10-22 11:43:00,52.8,39.7,30.28,ESE,119,3.0,8.0,61,0.00,,,0.00,Wunderground v.1.13,2014-10-22 15:43:00,
2014-10-22 11:49:00,52.8,40.1,30.28,ENE,61,4.0,6.0,62,0.00,,,0.00,Wunderground v.1.13,2014-10-22 15:49:00,
2014-10-22 11:54:00,51.9,39.3,30.29,ENE,68,4.0,8.0,62,0.00,,,0.00,Wunderground v.1.13,2014-10-22 15:54:00,
2014-10-22 12:00:00,51.7,39.9,30.29,ENE,69,3.0,3.0,64,0.00,,,0.00,Wunderground v.1.13,2014-10-22 16:00:00,
2014-10-22 12:06:00,52.0,40.2,30.29,SE,132,2.0,6.0,64,0.00,,,0.00,Wunderground v.1.13,2014-10-22 16:06:00,
2014-10-22 12:12:00,52.8,40.1,30.28,SSE,149,3.0,5.0,62,0.00,,,0.00,Wunderground v.1.13,2014-10-22 16:12:00,
2014-10-22 12:17:00,53.6,40.5,30.29,SSE,149,2.0,3.0,61,0.00,,,0.00,Wunderground v.1.13,2014-10-22 16:17:00,
2014-10-22 12:23:00,54.0,40.4,30.28,ENE,66,2.0,6.0,60,0.00,,,0.00,Wunderground v.1.13,2014-10-22 16:23:00,
2014-10-22 12:28:00,54.2,41.0,30.28,ESE,105,3.0,6.0,61,0.00,,,0.00,Wunderground v.1.13,2014-10-22 16:28:00,
2014-10-22 12:33:00,54.5,40.5,30.28,ESE,114,2.0,3.0,59,0.00,,,0.00,Wunderground v.1.13,2014-10-22 16:33:00,
2014-10-22 12:39:00,54.8,40.3,30.28,ENE,69,3.0,3.0,58,0.00,,,0.00,Wunderground v.1.13,2014-10-22 16:39:00,
2014-10-22 12:44:00,54.5,40.0,30.28,NNE,27,3.0,6.0,58,0.00,,,0.00,Wunderground v.1.13,2014-10-22 16:44:00,
2014-10-22 12:50:00,54.7,40.6,30.28,ENE,67,3.0,3.0,59,0.00,,,0.00,Wunderground v.1.13,2014-10-22 16:50:00,
2014-10-22 12:55:00,55.2,41.1,30.27,NE,55,2.0,2.0,59,0.00,,,0.00,Wunderground v.1.13,2014-10-22 16:55:00,
2014-10-22 13:02:00,55.3,40.8,30.27,East,95,2.0,2.0,58,0.00,,,0.00,Wunderground v.1.13,2014-10-22 17:02:00,
2014-10-22 13:07:00,55.4,41.3,30.27,East,91,2.0,4.0,59,0.00,,,0.00,Wunderground v.1.13,2014-10-22 17:07:00,
2014-10-22 13:13:00,55.8,40.8,30.27,ESE,120,3.0,7.0,57,0.00,,,0.00,Wunderground v.1.13,2014-10-22 17:13:00,
2014-10-22 13:18:00,56.0,41.4,30.26,East,90,3.0,8.0,58,0.00,,,0.00,Wunderground v.1.13,2014-10-22 17:18:00,
2014-10-22 13:24:00,55.9,40.9,30.26,ENE,63,3.0,6.0,57,0.00,,,0.00,Wunderground v.1.13,2014-10-22 17:24:00,
2014-10-22 13:30:00,55.9,40.4,30.26,SE,128,3.0,6.0,56,0.00,,,0.00,Wunderground v.1.13,2014-10-22 17:30:00,
2014-10-22 13:35:00,55.8,40.8,30.26,East,101,4.0,4.0,57,0.00,,,0.00,Wunderground v.1.13,2014-10-22 17:35:00,
2014-10-22 13:41:00,56.3,41.3,30.26,North,360,2.0,6.0,57,0.00,,,0.00,Wunderground v.1.13,2014-10-22 17:41:00,
2014-10-22 13:47:00,56.5,41.4,30.25,NNE,18,3.0,5.0,57,0.00,,,0.00,Wunderground v.1.13,2014-10-22 17:47:00,
2014-10-22 13:52:00,56.4,41.3,30.25,East,80,3.0,4.0,57,0.00,,,0.00,Wunderground v.1.13,2014-10-22 17:52:00,
2014-10-22 13:58:00,56.8,41.7,30.25,NNE,12,3.0,8.0,57,0.00,,,0.00,Wunderground v.1.13,2014-10-22 17:58:00,
2014-10-22 14:04:00,56.9,41.8,30.25,NE,42,5.0,10.0,57,0.00,,,0.00,Wunderground v.1.13,2014-10-22 18:04:00,
2014-10-22 14:10:00,56.5,41.4,30.25,NNE,21,6.0,6.0,57,0.00,,,0.00,Wunderground v.1.13,2014-10-22 18:10:00,
2014-10-22 14:16:00,56.6,41.5,30.24,NE,55,5.0,5.0,57,0.00,,,0.00,Wunderground v.1.13,2014-10-22 18:16:00,
2014-10-22 14:21:00,57.0,41.9,30.24,NNE,26,2.0,2.0,57,0.00,,,0.00,Wunderground v.1.13,2014-10-22 18:21:00,
2014-10-22 14:27:00,57.8,42.2,30.25,NE,46,2.0,9.0,56,0.00,,,0.00,Wunderground v.1.13,2014-10-22 18:27:00,
2014-10-22 14:33:00,57.3,41.3,30.24,NNE,22,3.0,4.0,55,0.00,,,0.00,Wunderground v.1.13,2014-10-22 18:33:00,
2014-10-22 14:38:00,57.3,42.2,30.24,North,355,1.0,4.0,57,0.00,,,0.00,Wunderground v.1.13,2014-10-22 18:38:00,
2014-10-22 14:44:00,57.7,42.6,30.24,ENE,63,2.0,10.0,57,0.00,,,0.00,Wunderground v.1.13,2014-10-22 18:44:00,
2014-10-22 14:50:00,57.8,42.7,30.24,SE,130,3.0,4.0,57,0.00,,,0.00,Wunderground v.1.13,2014-10-22 18:50:00,
2014-10-22 14:55:00,58.4,42.8,30.24,North,5,3.0,3.0,56,0.00,,,0.00,Wunderground v.1.13,2014-10-22 18:55:00,
2014-10-22 15:01:00,57.7,42.1,30.24,NE,51,5.0,6.0,56,0.00,,,0.00,Wunderground v.1.13,2014-10-22 19:01:00,
2014-10-22 15:07:00,57.5,41.9,30.24,ENE,69,5.0,7.0,56,0.00,,,0.00,Wunderground v.1.13,2014-10-22 19:07:00,
2014-10-22 15:13:00,57.3,42.2,30.24,NE,43,4.0,9.0,57,0.00,,,0.00,Wunderground v.1.13,2014-10-22 19:13:00,
2014-10-22 15:18:00,57.4,41.8,30.24,NE,37,6.0,11.0,56,0.00,,,0.00,Wunderground v.1.13,2014-10-22 19:18:00,
2014-10-22 15:24:00,57.1,41.5,30.24,ENE,59,6.0,8.0,56,0.00,,,0.00,Wunderground v.1.13,2014-10-22 19:24:00,
2014-10-22 15:29:00,57.0,41.9,30.23,ENE,59,3.0,5.0,57,0.00,,,0.00,Wunderground v.1.13,2014-10-22 19:29:00,
2014-10-22 15:34:00,57.6,42.5,30.23,East,79,2.0,7.0,57,0.00,,,0.00,Wunderground v.1.13,2014-10-22 19:34:00,
2014-10-22 15:40:00,57.3,42.2,30.23,East,83,5.0,5.0,57,0.00,,,0.00,Wunderground v.1.13,2014-10-22 19:40:00,
2014-10-22 15:46:00,57.7,42.6,30.23,ENE,78,3.0,3.0,57,0.00,,,0.00,Wunderground v.1.13,2014-10-22 19:46:00,
2014-10-22 15:51:00,58.1,42.9,30.23,ESE,103,2.0,5.0,57,0.00,,,0.00,Wunderground v.1.13,2014-10-22 19:51:00,
2014-10-22 15:57:00,57.9,43.2,30.24,SE,142,5.0,10.0,58,0.00,,,0.00,Wunderground v.1.13,2014-10-22 19:57:00,
2014-10-22 16:03:00,57.3,42.6,30.24,East,80,5.0,9.0,58,0.00,,,0.00,Wunderground v.1.13,2014-10-22 20:03:00,
2014-10-22 16:08:00,57.2,43.0,30.24,SSE,155,3.0,5.0,59,0.00,,,0.00,Wunderground v.1.13,2014-10-22 20:08:00,
2014-10-22 16:14:00,57.4,43.2,30.24,ENE,76,4.0,11.0,59,0.00,,,0.00,Wunderground v.1.13,2014-10-22 20:14:00,
2014-10-22 16:20:00,57.5,43.3,30.24,ENE,61,6.0,6.0,59,0.00,,,0.00,Wunderground v.1.13,2014-10-22 20:20:00,
2014-10-22 16:25:00,57.2,43.0,30.24,ENE,71,7.0,9.0,59,0.00,,,0.00,Wunderground v.1.13,2014-10-22 20:25:00,
2014-10-22 16:31:00,57.0,43.2,30.24,NE,51,9.0,9.0,60,0.00,,,0.00,Wunderground v.1.13,2014-10-22 20:31:00,
2014-10-22 16:37:00,56.8,43.1,30.24,ENE,74,8.0,11.0,60,0.00,,,0.00,Wunderground v.1.13,2014-10-22 20:37:00,
2014-10-22 16:42:00,56.4,42.7,30.24,East,99,9.0,9.0,60,0.00,,,0.00,Wunderground v.1.13,2014-10-22 20:42:00,
2014-10-22 16:48:00,56.4,43.1,30.24,East,89,8.0,13.0,61,0.00,,,0.00,Wunderground v.1.13,2014-10-22 20:48:00,
2014-10-22 16:54:00,56.3,43.0,30.24,ENE,67,9.0,12.0,61,0.00,,,0.00,Wunderground v.1.13,2014-10-22 20:54:00,
2014-10-22 16:59:00,55.9,42.6,30.24,ENE,65,9.0,12.0,61,0.00,,,0.00,Wunderground v.1.13,2014-10-22 20:59:00,
2014-10-22 17:04:00,55.7,42.9,30.24,ENE,74,8.0,9.0,62,0.00,,,0.00,Wunderground v.1.13,2014-10-22 21:04:00,
2014-10-22 17:10:00,55.3,42.5,30.25,ENE,73,10.0,12.0,62,0.00,,,0.00,Wunderground v.1.13,2014-10-22 21:10:00,
2014-10-22 17:15:00,54.9,42.5,30.24,East,93,10.0,10.0,63,0.00,,,0.00,Wunderground v.1.13,2014-10-22 21:15:00,
2014-10-22 17:21:00,55.0,42.6,30.25,ENE,74,7.0,10.0,63,0.00,,,0.00,Wunderground v.1.13,2014-10-22 21:21:00,
2014-10-22 17:26:00,54.7,42.8,30.25,ENE,76,9.0,11.0,64,0.00,,,0.00,Wunderground v.1.13,2014-10-22 21:26:00,
2014-10-22 17:33:00,54.3,42.4,30.25,ESE,107,9.0,14.0,64,0.00,,,0.00,Wunderground v.1.13,2014-10-22 21:33:00,
2014-10-22 17:38:00,54.1,42.2,30.25,East,91,8.0,13.0,64,0.00,,,0.00,Wunderground v.1.13,2014-10-22 21:38:00,
2014-10-22 17:44:00,53.8,41.9,30.25,ENE,61,10.0,12.0,64,0.00,,,0.00,Wunderground v.1.13,2014-10-22 21:44:00,
2014-10-22 17:49:00,53.6,42.1,30.25,NE,56,9.0,11.0,65,0.00,,,0.00,Wunderground v.1.13,2014-10-22 21:49:00,
2014-10-22 17:55:00,53.4,41.5,30.25,East,86,8.0,8.0,64,0.00,,,0.00,Wunderground v.1.13,2014-10-22 21:55:00,
2014-10-22 18:01:00,53.1,41.2,30.25,ENE,78,9.0,11.0,64,0.00,,,0.00,Wunderground v.1.13,2014-10-22 22:01:00,
2014-10-22 18:07:00,52.9,41.0,30.25,ENE,74,9.0,10.0,64,0.00,,,0.00,Wunderground v.1.13,2014-10-22 22:07:00,
2014-10-22 18:12:00,52.6,41.2,30.26,ENE,66,7.0,8.0,65,0.00,,,0.00,Wunderground v.1.13,2014-10-22 22:12:00,
2014-10-22 18:18:00,52.3,40.9,30.26,ENE,69,7.0,13.0,65,0.00,,,0.00,Wunderground v.1.13,2014-10-22 22:18:00,
2014-10-22 18:23:00,52.1,40.7,30.26,ENE,64,7.0,15.0,65,0.00,,,0.00,Wunderground v.1.13,2014-10-22 22:23:00,
2014-10-22 18:29:00,51.7,41.1,30.26,ENE,76,8.0,11.0,67,0.00,,,0.00,Wunderground v.1.13,2014-10-22 22:29:00,
2014-10-22 18:35:00,51.3,40.7,30.26,East,79,9.0,9.0,67,0.00,,,0.00,Wunderground v.1.13,2014-10-22 22:35:00,
2014-10-22 18:41:00,51.0,40.8,30.26,ENE,69,8.0,9.0,68,0.00,,,0.00,Wunderground v.1.13,2014-10-22 22:41:00,
2014-10-22 18:46:00,50.7,40.9,30.26,ENE,67,8.0,8.0,69,0.00,,,0.00,Wunderground v.1.13,2014-10-22 22:46:00,
2014-10-22 18:52:00,50.3,40.9,30.26,NE,53,6.0,7.0,70,0.00,,,0.00,Wunderground v.1.13,2014-10-22 22:52:00,
2014-10-22 18:57:00,49.9,40.5,30.26,ENE,59,5.0,9.0,70,0.00,,,0.00,Wunderground v.1.13,2014-10-22 22:57:00,
2014-10-22 19:02:00,49.6,40.6,30.27,ENE,76,4.0,5.0,71,0.00,,,0.00,Wunderground v.1.13,2014-10-22 23:02:00,
2014-10-22 19:08:00,49.4,40.4,30.27,ENE,65,4.0,6.0,71,0.00,,,0.00,Wunderground v.1.13,2014-10-22 23:08:00,
2014-10-22 19:13:00,49.2,40.2,30.27,ENE,74,5.0,7.0,71,0.00,,,0.00,Wunderground v.1.13,2014-10-22 23:13:00,
2014-10-22 19:19:00,49.2,40.2,30.27,ENE,74,5.0,6.0,71,0.00,,,0.00,Wunderground v.1.13,2014-10-22 23:19:00,
2014-10-22 19:25:00,49.1,40.5,30.27,ENE,72,3.0,3.0,72,0.00,,,0.00,Wunderground v.1.13,2014-10-22 23:25:00,
2014-10-22 19:30:00,49.0,40.4,30.27,ENE,76,2.0,2.0,72,0.00,,,0.00,Wunderground v.1.13,2014-10-22 23:30:00,
2014-10-22 19:36:00,48.9,40.6,30.27,ENE,74,1.0,2.0,73,0.00,,,0.00,Wunderground v.1.13,2014-10-22 23:36:00,
2014-10-22 19:42:00,48.8,40.5,30.27,ENE,73,1.0,2.0,73,0.00,,,0.00,Wunderground v.1.13,2014-10-22 23:42:00,
2014-10-22 19:47:00,48.6,40.3,30.27,ENE,72,1.0,4.0,73,0.00,,,0.00,Wunderground v.1.13,2014-10-22 23:47:00,
2014-10-22 19:53:00,48.5,40.6,30.28,ENE,72,1.0,5.0,74,0.00,,,0.00,Wunderground v.1.13,2014-10-22 23:53:00,
2014-10-22 19:59:00,48.4,40.5,30.28,ENE,66,3.0,4.0,74,0.00,,,0.00,Wunderground v.1.13,2014-10-22 23:59:00,
2014-10-22 20:03:00,48.5,40.6,30.28,ENE,70,5.0,7.0,74,0.00,,,0.00,Wunderground v.1.13,2014-10-23 00:03:00,
2014-10-22 20:09:00,48.5,40.2,30.28,ENE,72,6.0,11.0,73,0.00,,,0.00,Wunderground v.1.13,2014-10-23 00:09:00,
2014-10-22 20:15:00,48.5,40.2,30.28,ENE,71,5.0,5.0,73,0.00,,,0.00,Wunderground v.1.13,2014-10-23 00:15:00,
2014-10-22 20:20:00,48.4,40.1,30.28,ENE,72,4.0,4.0,73,0.00,,,0.00,Wunderground v.1.13,2014-10-23 00:20:00,
2014-10-22 20:26:00,48.3,40.4,30.28,ENE,71,1.0,2.0,74,0.00,,,0.00,Wunderground v.1.13,2014-10-23 00:26:00,
2014-10-22 20:32:00,48.1,40.2,30.28,ENE,71,1.0,2.0,74,0.00,,,0.00,Wunderground v.1.13,2014-10-23 00:32:00,
2014-10-22 20:37:00,48.1,40.2,30.28,ENE,74,1.0,5.0,74,0.00,,,0.00,Wunderground v.1.13,2014-10-23 00:37:00,